Location: Habighorst
(52.7089°N, 10.2278°E)
Time: 14:26:02
(UTC+00:00)

Cosmos 2369 Rocket - Visible Passes

Search period start: 11 April 2026 00:00
Search period end: 21 April 2026 00:00
Orbit: 829 x 850 km, 71.0° (Epoch: 11 April)

Date Brightness Start Highest point End Pass type
(mag) Time Alt. Az. Time Alt. Az. Time Alt. Az.
11 Apr 4.2 19:30:30 10° NNW 19:34:13 18° NNE 19:37:56 10° ENE visible
11 Apr 2.7 21:14:09 10° NNW 21:19:36 50° NE 21:20:57 41° E visible
11 Apr 3.2 22:58:24 10° NW 23:02:43 35° W 23:02:43 35° W visible
12 Apr 4.2 19:14:45 10° NNW 19:18:24 17° NNE 19:22:01 10° ENE visible
12 Apr 2.7 20:58:24 10° NNW 21:03:50 48° NE 21:05:35 36° E visible
12 Apr 3.0 22:42:36 10° NW 22:47:20 38° W 22:47:20 38° W visible
13 Apr 4.2 18:59:01 10° NNW 19:02:34 17° NNE 19:06:06 10° ENE visible
13 Apr 2.8 20:42:39 10° NNW 20:48:03 46° NE 20:50:13 31° E visible
13 Apr 2.9 22:26:50 10° NW 22:31:59 41° WSW 22:31:59 41° WSW visible
14 Apr 2.8 20:26:54 10° NNW 20:32:16 44° NE 20:34:53 27° ESE visible
14 Apr 2.7 22:11:02 10° NW 22:16:18 43° WSW 22:16:39 43° WSW visible
15 Apr 2.9 20:11:10 10° NNW 20:16:30 42° NE 20:19:34 23° ESE visible
15 Apr 2.7 21:55:16 10° NW 22:00:35 45° WSW 22:01:20 43° SW visible
16 Apr 2.9 19:55:26 10° NNW 20:00:43 40° NE 20:04:17 19° ESE visible
16 Apr 2.7 21:39:29 10° NW 21:44:51 48° WSW 21:46:03 41° SSW visible
17 Apr 3.0 19:39:41 10° NNW 19:44:56 39° NE 19:49:02 16° ESE visible
17 Apr 2.6 21:23:43 10° NW 21:29:08 51° WSW 21:30:48 38° SSW visible
18 Apr 3.1 19:23:57 10° NNW 19:29:09 37° NE 19:33:48 12° ESE visible
18 Apr 2.6 21:07:57 10° NW 21:13:24 54° WSW 21:15:34 34° S visible
19 Apr 3.1 19:08:13 10° NNW 19:13:22 36° NE 19:18:29 10° ESE visible
19 Apr 2.5 20:52:10 10° NW 20:57:39 57° WSW 21:00:22 29° S visible
19 Apr 4.6 22:39:48 10° W 22:40:26 10° W 22:41:04 10° W visible
20 Apr 3.2 18:52:28 10° NNW 18:57:35 34° NE 19:02:39 10° ESE visible
20 Apr 2.5 20:36:25 10° NW 20:41:55 60° WSW 20:45:12 24° S visible
20 Apr 4.5 22:23:19 10° W 22:24:45 11° W 22:26:11 10° WSW visible
